Regional Weather Roundup
Issued by NWS

Home | Current Version | Previous Version | Text Only | Print | Product List | Glossary On
Versions: 1 2 3 4 5 6 7 8 9 10 11 12 13 14 15 16 17 18 19 20 21 22 23 24 25 26 27 28 29 30 31 32 33 34 35 36 37 38 39 40 41 42 43 44 45 46 47 48 49 50
000
ASUS43 KDTX 280101
RWRMI
MICHIGAN HOURLY REGIONAL WEATHER ROUNDUP
NATIONAL WEATHER SERVICE DETROIT/PONTIAC MI
900 PM EDT MON APR 27 2015

NOTE: "FAIR" INDICATES FEW OR NO CLOUDS BELOW 12,000 FEET WITH NO
SIGNIFICANT WEATHER AND/OR OBSTRUCTION TO VISIBILITY.

MIZ047>049-052>055-059>063-066>070-074>076-081>083-280200-
SOUTHEAST LOWER MICHIGAN

CITY           SKY/WX    TMP DP  RH WIND       PRES   REMARKS
ADRIAN         CLOUDY    48  35  60 N7        30.08R
ALMA           CLOUDY    52  34  49 CALM      30.07S
ANN ARBOR      PTCLDY    46  32  58 NE5       30.07R
BAD AXE        CLEAR     42  32  66 N3        30.10R
CARO           CLEAR     45  33  64 CALM      30.08R
DETROIT CITY   CLEAR     47  34  60 N8        30.08R
DETROIT        MOCLDY    50  34  54 N6        30.08R
FLINT          PTCLDY    47  31  53 NE6       30.09R
GROSSE ILE     PTCLDY    48  34  57 N3        30.06R
HILLSDALE      MOCLDY    46  33  62 CALM      30.07R
HOWELL         PTCLDY    47  31  54 CALM      30.07R

CITY           SKY/WX    TMP DP  RH WIND       PRES   REMARKS
JACKSON        PTCLDY    44  33  65 CALM      30.08R
LAMBERTVILLE   CLOUDY    48  32  53 CALM      30.07S
LANSING        CLOUDY    48  33  56 CALM      30.08R
LAPEER         FAIR      42  32  67 CALM      30.07S
MASON          PTCLDY    47  32  56 CALM      30.08R
MONROE         CLOUDY    48  36  61 CALM      30.06R
PONTIAC        PTCLDY    46  32  58 NE3       30.06R
PORT HOPE        N/A     42  35  76 N9        30.07R
PORT HURON     CLEAR     43  34  70 N3        30.08S
TRI CITIES     MOCLDY    48  34  58 NE12      30.09R
MIDLAND        CLOUDY    47  33  58 E8        30.08R
TROY           PTCLDY    48  33  56 N3        30.09R
SAGINAW HB     MOCLDY    45  34  65 NE5       30.08R
$$
MIZ043>046-050>051-056>058-064>065-071>073-077>080-280200-
SOUTHWEST LOWER MICHIGAN

CITY           SKY/WX    TMP DP  RH WIND       PRES   REMARKS
BATTLE CREEK   CLOUDY    50  33  52 CALM      30.08S
BENTON HARBOR  CLEAR     42  33  70 VRB3      30.10S
BIG RAPIDS     CLOUDY    51  34  51 N6        30.07R
COLDWATER      MOCLDY    44  32  63 CALM      30.08R
FREMONT        FAIR      47  32  55 N6        30.07S
HOLLAND        PTCLDY    46  35  65 W5        30.09S
GRAND RAPIDS   MOCLDY    50  34  54 W6        30.08R
IONIA          FAIR      50  35  57 SE5       30.07S
KALAMAZOO      CLOUDY    49  35  58 NW6       30.09R
LUDINGTON      CLEAR     48  34  58 NE5       30.10S
MARSHALL       CLOUDY    47  37  68 CALM      30.08R
MOUNT PLEASANT CLOUDY    52  34  50 NW3       30.07R
MUSKEGON       PTCLDY    50  34  54 N3        30.08S
SOUTH HAVEN    CLEAR     43  34  69 CALM      30.10S
$$
MIZ016>042-280200-
NORTHERN LOWER MICHIGAN

CITY           SKY/WX    TMP DP  RH WIND       PRES   REMARKS
BEAVER ISLAND  CLOUDY    46  33  61 N7        30.13S
BELLAIRE       CLOUDY    49  33  52 CALM      30.12R
CADILLAC       CLOUDY    45  32  60 N7        30.09R
CHARLEVOIX     CLOUDY    44  34  69 W7        30.15R
FRANKFORT      CLEAR     47  30  52 CALM      30.12S
GAYLORD        CLOUDY    46  32  58 NW6       30.09R
GRAYLING       CLOUDY    48  32  55 CALM      30.10R
HARBOR SPRINGS CLOUDY    49  33  54 CALM      30.11R
HOUGHTON LAKE  CLOUDY    47  33  58 NW8       30.09R
MANISTEE       CLEAR     46  32  57 N5        30.11S
OSCODA         PTCLDY    46  33  62 N8        30.09R
PELLSTON       CLOUDY    48  34  58 NE8       30.11R
ROGERS CITY    CLOUDY    46  35  66 NW10      30.11R
TRAVERSE CITY  MOCLDY    49  32  52 N3        30.11R
$$
MIZ007>008-015-280200-
EASTERN UPPER MICHIGAN

CITY           SKY/WX    TMP DP  RH WIND       PRES   REMARKS
KINROSS        CLOUDY    43  36  75 NW8       30.11S
MACKINAC ISLAN CLOUDY    45  34  65 N8        30.11R
NEWBERRY       CLOUDY    42  34  74 NW7       30.14R
S. S. MARIE    CLOUDY    47  33  58 N5        30.11R
$$
MIZ004>006-011>014-085-280200-
CENTRAL UPPER MICHIGAN

CITY           SKY/WX    TMP DP  RH WIND       PRES   REMARKS
MANISTIQUE     CLEAR     42  32  69 N8        30.14S
ESCANABA       CLEAR     46  30  53 NE10      30.14R
MENOMINEE      CLEAR     46  32  57 E10       30.13S
SAWYER-GWINN   CLEAR     39  30  70 NE9       30.15S WCI  33
$$
MIZ001>003-009>011-084-280200-
WESTERN UPPER MICHIGAN

CITY           SKY/WX    TMP DP  RH WIND       PRES   REMARKS
IRON MOUNTAIN  CLEAR     56  27  32 N12       30.10R
HOUGHTON       CLEAR     44  32  62 CALM      30.15S
COPPER HARBOR    N/A     38  32  79 N7        30.16F WCI  33
IRONWOOD       CLEAR     55  28  35 CALM      30.12F
$$

ABBREVIATIONS USED IN REMARKS
   TC - TEMPERATURE IN CELSIUS
  WCI - WIND CHILL INDEX
   HX - HEAT INDEX
  VSB - VISIBILITY



USA.gov is the U.S. government's official web portal to all federal, state and local government web resources and services.